Location: Newark
(30.0333°N, 31.2167°E)
Time: 13:57:02
(UTC+00:00)

Altair - All Passes

Search period start: 29 January 2020 00:00
Search period end: 08 February 2020 00:00
Orbit: 1502 x 1682 km, 47.2° (Epoch: 28 January)

Date Brightness Start Highest point End Pass type
(mag) Time Alt. Az. Time Alt. Az. Time Alt. Az.
29 Jan - 02:06:09 10° SSE 02:11:53 17° ESE 02:17:42 10° E visible
29 Jan - 04:05:45 10° SW 04:15:32 75° SE 04:25:38 10° NE visible
29 Jan - 06:11:40 10° W 06:21:02 43° NNW 06:30:35 10° NE daylight
29 Jan - 08:20:02 10° WNW 08:28:30 29° N 08:36:58 10° ENE daylight
29 Jan - 10:26:22 10° NW 10:35:57 44° NNE 10:45:19 10° E daylight
29 Jan - 12:31:21 10° NW 12:41:24 73° SW 12:51:08 10° SE daylight
29 Jan - 14:39:27 10° W 14:45:00 17° WSW 14:50:29 10° SSW daylight
30 Jan - 01:41:59 10° SSE 01:46:49 15° ESE 01:51:42 10° E visible
30 Jan - 03:40:41 10° SW 03:50:21 69° SE 04:00:22 10° NE visible
30 Jan - 05:46:16 10° W 05:55:42 45° NNW 06:05:21 10° NE daylight
30 Jan - 07:54:36 10° WNW 08:03:04 29° N 08:11:33 10° NE daylight
30 Jan - 10:01:08 10° NW 10:10:37 41° NNE 10:19:53 10° E daylight
30 Jan - 12:06:05 10° NW 12:16:13 79° SW 12:26:02 10° SE daylight
30 Jan - 14:13:35 10° W 14:19:56 19° WSW 14:26:11 10° SSW daylight
31 Jan - 01:18:10 10° SE 01:21:45 12° ESE 01:25:23 10° E visible
31 Jan - 03:15:39 10° SSW 03:25:12 63° SE 03:35:05 10° NE visible
31 Jan - 05:20:53 10° W 05:30:22 48° NNW 05:40:07 10° NE daylight
31 Jan - 07:29:10 10° WNW 07:37:38 29° N 07:46:09 10° NE daylight
31 Jan - 09:35:53 10° NW 09:45:15 39° NNE 09:54:28 10° E daylight
31 Jan - 11:40:51 10° NW 11:51:02 85° SW 12:00:55 10° SE daylight
31 Jan - 13:47:52 10° W 13:54:51 22° SW 14:01:43 10° S daylight
01 Feb - 00:55:25 10° SE 00:56:42 10° ESE 00:57:59 10° ESE visible
01 Feb - 02:50:38 10° SSW 03:00:03 57° SE 03:09:48 10° ENE visible
01 Feb - 04:55:31 10° WSW 05:05:04 51° NNW 05:14:54 10° NE daylight
01 Feb - 07:03:43 10° WNW 07:12:12 29° N 07:20:45 10° NE daylight
01 Feb - 09:10:38 10° NW 09:19:53 38° NNE 09:29:01 10° E daylight
01 Feb - 11:15:36 10° NW 11:25:50 89° NE 11:35:45 10° SE daylight
01 Feb - 13:22:13 10° WNW 13:29:46 25° SW 13:37:10 10° S daylight
02 Feb - 02:25:40 10° SSW 02:34:55 52° SE 02:44:29 10° ENE visible
02 Feb - 04:30:11 10° WSW 04:39:46 54° NNW 04:49:41 10° NE daylight
02 Feb - 06:38:16 10° WNW 06:46:47 30° N 06:55:23 10° NE daylight
02 Feb - 08:45:22 10° NW 08:54:30 36° NNE 09:03:34 10° E daylight
02 Feb - 10:50:23 10° NW 11:00:37 83° NE 11:10:34 10° SE daylight
02 Feb - 12:56:40 10° WNW 13:04:41 28° SW 13:12:32 10° S daylight
03 Feb - 02:00:44 10° SSW 02:09:47 47° SE 02:19:10 10° ENE visible
03 Feb - 04:04:52 10° WSW 04:14:29 58° NNW 04:24:27 10° NE visible
03 Feb - 06:12:48 10° WNW 06:21:21 30° N 06:30:01 10° NE daylight
03 Feb - 08:20:05 10° NW 08:29:08 35° NNE 08:38:06 10° E daylight
03 Feb - 10:25:10 10° NW 10:35:23 78° NE 10:45:22 10° SE daylight
03 Feb - 12:31:10 10° WNW 12:39:35 31° SW 12:47:49 10° S daylight
04 Feb - 01:35:51 10° SSW 01:44:41 43° SE 01:53:48 10° ENE visible
04 Feb - 03:39:34 10° WSW 03:49:13 62° NW 03:59:14 10° NE visible
04 Feb - 05:47:21 10° WNW 05:55:56 31° N 06:04:40 10° NE daylight
04 Feb - 07:54:49 10° NW 08:03:43 33° NNE 08:12:36 10° ENE daylight
04 Feb - 09:59:56 10° NW 10:10:09 72° NE 10:20:07 10° ESE daylight
04 Feb - 12:05:43 10° WNW 12:14:29 35° SW 12:23:03 10° S daylight
05 Feb - 01:10:59 10° SSW 01:19:34 38° SE 01:28:26 10° ENE visible
05 Feb - 03:14:18 10° WSW 03:23:58 67° NW 03:34:01 10° NE visible
05 Feb - 05:21:53 10° WNW 05:30:32 32° NNW 05:39:20 10° NE daylight
05 Feb - 07:29:31 10° NW 07:38:19 32° NNE 07:47:08 10° ENE daylight
05 Feb - 09:34:44 10° NW 09:44:53 67° NE 09:54:51 10° ESE daylight
05 Feb - 11:40:18 10° WNW 11:49:22 39° SW 11:58:14 10° SSE daylight
06 Feb - 00:46:11 10° S 00:54:29 34° SE 01:03:01 10° ENE visible
06 Feb - 02:49:03 10° WSW 02:58:44 72° NW 03:08:48 10° NE visible
06 Feb - 04:56:26 10° WNW 05:05:08 33° NNW 05:14:01 10° NE daylight
06 Feb - 07:04:12 10° NW 07:12:54 31° NNE 07:21:38 10° ENE daylight
06 Feb - 09:09:32 10° NW 09:19:38 63° NE 09:29:34 10° ESE daylight
06 Feb - 11:14:55 10° WNW 11:24:14 43° SW 11:33:21 10° SSE daylight
07 Feb - 00:21:26 10° S 00:29:23 31° SE 00:37:34 10° ENE visible
07 Feb - 02:23:50 10° SW 02:33:30 77° NW 02:43:34 10° NE visible
07 Feb - 04:31:00 10° W 04:39:45 34° NNW 04:48:43 10° NE daylight
07 Feb - 06:38:53 10° NW 06:47:30 31° N 06:56:09 10° ENE daylight
07 Feb - 08:44:19 10° NW 08:54:21 59° NNE 09:04:15 10° ESE daylight
07 Feb - 10:49:35 10° WNW 10:59:06 47° SW 11:08:27 10° SSE daylight
